This is the latest recevied weather packets stored in our database for station/object AE5HO. If no packets are shown the sender has not sent any weather packets the latest 10 day(s).
| Time | Temp. | Humidity | Pressure | Rain* | Wind** | Luminosity | Snow |
|---|---|---|---|---|---|---|---|
| 1787749495 | 28.33° C | 62% | 1015.4 hPa | 0 mm | - | 32 W/m² | - |
| 1787749196 | 28.33° C | 61% | 1015.3 hPa | 0 mm | - | 28 W/m² | - |
| 1787748891 | 28.33° C | 61% | 1015.3 hPa | 0 mm | - | 21 W/m² | - |
| 1787748590 | 28.33° C | 61% | 1015.3 hPa | 0 mm | - | 15 W/m² | - |
| 1787748286 | 28.33° C | 61% | 1015.4 hPa | 0 mm | - | 11 W/m² | - |
| 1787747982 | 28.33° C | 61% | 1015 hPa | 0 mm | - | 6 W/m² | - |
| 1787747677 | 28.33° C | 60% | 1015.2 hPa | 0 mm | - | 6 W/m² | - |
| 1787747376 | 28.33° C | 60% | 1015 hPa | 0 mm | - | 5 W/m² | - |
| 1787747072 | 28.33° C | 59% | 1015 hPa | 0 mm | - | 4 W/m² | - |
| 1787746769 | 28.33° C | 59% | 1014.8 hPa | 0 mm | - | 1 W/m² | - |
| 1787746467 | 27.78° C | 60% | 1014.8 hPa | 0 mm | - | 0 W/m² | - |
| 1787746166 | 27.78° C | 60% | 1014.7 hPa | 0 mm | - | 0 W/m² | - |
| 1787745861 | 28.33° C | 61% | 1014.6 hPa | 0 mm | - | 0 W/m² | - |
| 1787745559 | 28.33° C | 62% | 1014.6 hPa | 0 mm | - | 0 W/m² | - |
| 1787745254 | 28.33° C | 61% | 1014.4 hPa | 0 mm | - | 0 W/m² | - |
| 1787744950 | 28.33° C | 61% | 1014.7 hPa | 0 mm | - | 0 W/m² | - |
| 1787744646 | 28.33° C | 61% | 1014.3 hPa | 0 mm | - | 0 W/m² | - |
| 1787744341 | 28.33° C | 61% | 1014.5 hPa | 0 mm | - | 0 W/m² | - |
| 1787744038 | 28.33° C | 61% | 1014.5 hPa | 0 mm | - | 0 W/m² | - |
| 1787743737 | 28.33° C | 60% | 1014.2 hPa | 0 mm | - | 0 W/m² | - |
| 1787743431 | 28.33° C | 60% | 1014.4 hPa | 0 mm | - | 0 W/m² | - |
| 1787743128 | 28.89° C | 59% | 1014.4 hPa | 0 mm | - | 0 W/m² | - |
| 1787742828 | 28.89° C | 58% | 1014.5 hPa | 0 mm | - | 0 W/m² | - |
| 1787742524 | 28.89° C | 57% | 1014.4 hPa | 0 mm | - | 0 W/m² | - |
| 1787742220 | 28.89° C | 57% | 1014.3 hPa | 0 mm | - | 0 W/m² | - |
* Rain latest hour (hover to see other rain measurements)
** Current wind speed in m/s (hover to see current wind gust speed)